NKS1639 KRNO-KLAS

Flight info

Callsign NKS1639
Flight time 1h 0m
Altitude 33000
Route ALPYN1 YERIN TQILA COKTL4
Aircraft A320/M-SDE3FGHIRWY/LB1

Departure

Time 2026-05-07 19:24
Airport Reno Tahoe International Airport (KRNO)

Arrival

Time 2026-05-07 20:24
Airport Harry Reid International Airport (KLAS)
Time Latitude Longitude Altitude Speed Heading
2026-05-07 18:46 39.50742 -119.77252 4520 ft 0 kts 213°
2026-05-07 19:10 39.50751 -119.77244 4519 ft 4 kts 214°
2026-05-07 19:10 39.50769 -119.77228 4522 ft 4 kts 211°
2026-05-07 19:10 39.50791 -119.77218 4520 ft 4 kts 159°
2026-05-07 19:11 39.50802 -119.77237 4521 ft 4 kts 90°
2026-05-07 19:11 39.50802 -119.77256 4519 ft 0 kts 90°
2026-05-07 19:13 39.50802 -119.77255 4522 ft 1 kts 90°
2026-05-07 19:13 39.50802 -119.77234 4524 ft 4 kts 91°
2026-05-07 19:13 39.50799 -119.77174 4523 ft 9 kts 105°
2026-05-07 19:14 39.50735 -119.77150 4521 ft 12 kts 180°
2026-05-07 19:14 39.50646 -119.77151 4521 ft 13 kts 180°
2026-05-07 19:14 39.50583 -119.77151 4521 ft 14 kts 180°
2026-05-07 19:14 39.50479 -119.77150 4520 ft 16 kts 180°
2026-05-07 19:15 39.50366 -119.77150 4520 ft 17 kts 180°
2026-05-07 19:15 39.50246 -119.77152 4521 ft 18 kts 181°
2026-05-07 19:15 39.50117 -119.77152 4521 ft 19 kts 180°
2026-05-07 19:15 39.49980 -119.77153 4520 ft 20 kts 179°
2026-05-07 19:16 39.49835 -119.77152 4521 ft 21 kts 180°
2026-05-07 19:16 39.49682 -119.77152 4520 ft 23 kts 180°
2026-05-07 19:16 39.49522 -119.77153 4521 ft 22 kts 181°
2026-05-07 19:16 39.49371 -119.77155 4521 ft 22 kts 180°
2026-05-07 19:17 39.49227 -119.77155 4522 ft 20 kts 180°
2026-05-07 19:17 39.49084 -119.77158 4524 ft 21 kts 181°
2026-05-07 19:17 39.48959 -119.77154 4522 ft 14 kts 174°
2026-05-07 19:17 39.48924 -119.77065 4521 ft 9 kts 88°
2026-05-07 19:18 39.48925 -119.77044 4521 ft 1 kts 88°
2026-05-07 19:18 39.48925 -119.77006 4521 ft 5 kts 90°
2026-05-07 19:18 39.48925 -119.76952 4521 ft 7 kts 91°
2026-05-07 19:18 39.48924 -119.76886 4520 ft 8 kts 91°
2026-05-07 19:19 39.48924 -119.76825 4520 ft 2 kts 90°
2026-05-07 19:19 39.48925 -119.76807 4523 ft 1 kts 89°
2026-05-07 19:19 39.48925 -119.76792 4522 ft 3 kts 89°
2026-05-07 19:19 39.48925 -119.76752 4520 ft 6 kts 89°
2026-05-07 19:20 39.48932 -119.76691 4518 ft 8 kts 58°
2026-05-07 19:20 39.48973 -119.76681 4518 ft 1 kts 358°
2026-05-07 19:23 39.48974 -119.76681 4521 ft 0 kts 358°
2026-05-07 19:24 39.49086 -119.76683 4522 ft 52 kts 360°
2026-05-07 19:24 39.49720 -119.76681 4525 ft 127 kts
2026-05-07 19:24 39.50805 -119.76680 4560 ft 180 kts 359°
2026-05-07 19:24 39.52048 -119.76712 5359 ft 177 kts 359°
2026-05-07 19:25 39.53298 -119.76719 6069 ft 180 kts 357°
2026-05-07 19:25 39.54534 -119.76701 6627 ft 177 kts 357°
2026-05-07 19:25 39.55761 -119.76680 7048 ft 176 kts 357°
2026-05-07 19:25 39.56988 -119.76660 7469 ft 176 kts 357°
2026-05-07 19:26 39.58250 -119.76620 7707 ft 192 kts
2026-05-07 19:26 39.59483 -119.75784 7832 ft 218 kts 50°
2026-05-07 19:26 39.60090 -119.73897 7982 ft 241 kts 78°
2026-05-07 19:26 39.60272 -119.71623 8130 ft 266 kts 88°
2026-05-07 19:27 39.60308 -119.69163 8637 ft 277 kts 90°
2026-05-07 19:27 39.60314 -119.66655 9379 ft 280 kts 90°
2026-05-07 19:27 39.60331 -119.64118 10104 ft 283 kts 91°
2026-05-07 19:27 39.59893 -119.61637 10736 ft 286 kts 121°
2026-05-07 19:28 39.58583 -119.59603 10972 ft 306 kts 140°
2026-05-07 19:28 39.56848 -119.57845 11140 ft 328 kts 147°
2026-05-07 19:28 39.54877 -119.56162 11309 ft 348 kts 149°
2026-05-07 19:28 39.52802 -119.54475 11806 ft 357 kts 150°
2026-05-07 19:29 39.50686 -119.52723 12416 ft 363 kts 149°
2026-05-07 19:29 39.48565 -119.50898 12992 ft 369 kts 148°
2026-05-07 19:29 39.46443 -119.49007 13646 ft 372 kts 147°
2026-05-07 19:29 39.44315 -119.47067 14229 ft 376 kts 147°
2026-05-07 19:30 39.42177 -119.45095 14777 ft 380 kts 146°
2026-05-07 19:30 39.40018 -119.43101 15320 ft 383 kts 146°
2026-05-07 19:30 39.37837 -119.41095 15841 ft 387 kts 146°
2026-05-07 19:30 39.35633 -119.39079 16384 ft 390 kts 146°
2026-05-07 19:31 39.33408 -119.37047 16936 ft 393 kts 146°
2026-05-07 19:31 39.31160 -119.35003 17495 ft 397 kts 146°
2026-05-07 19:31 39.28889 -119.32945 18074 ft 400 kts 146°
2026-05-07 19:31 39.26597 -119.30874 18590 ft 404 kts 146°
2026-05-07 19:32 39.24289 -119.28780 19102 ft 407 kts 144°
2026-05-07 19:32 39.22128 -119.26396 19618 ft 411 kts 136°
2026-05-07 19:32 39.20078 -119.23805 20172 ft 414 kts 136°
2026-05-07 19:32 39.18013 -119.21204 20704 ft 417 kts 136°
2026-05-07 19:33 39.15957 -119.18622 21232 ft 419 kts 135°
2026-05-07 19:33 39.13862 -119.15996 21779 ft 421 kts 135°
2026-05-07 19:33 39.11755 -119.13358 22285 ft 424 kts 135°
2026-05-07 19:33 39.09634 -119.10705 22777 ft 426 kts 135°
2026-05-07 19:34 39.07501 -119.08039 23261 ft 429 kts 135°
2026-05-07 19:34 39.05354 -119.05355 23705 ft 432 kts 135°
2026-05-07 19:34 39.03191 -119.02656 24098 ft 434 kts 135°
2026-05-07 19:34 39.01018 -118.99952 24490 ft 436 kts 135°
2026-05-07 19:35 38.98832 -118.97237 24874 ft 439 kts 135°
2026-05-07 19:35 38.96623 -118.94508 25255 ft 441 kts 135°
2026-05-07 19:35 38.94385 -118.91788 25611 ft 444 kts 136°
2026-05-07 19:35 38.92125 -118.89072 25974 ft 446 kts 136°
2026-05-07 19:36 38.89847 -118.86352 26336 ft 449 kts 136°
2026-05-07 19:36 38.87553 -118.83615 26694 ft 451 kts 136°
2026-05-07 19:36 38.85251 -118.80867 27040 ft 453 kts 136°
2026-05-07 19:36 38.82940 -118.78105 27420 ft 455 kts 136°
2026-05-07 19:37 38.80623 -118.75324 27773 ft 457 kts 136°
2026-05-07 19:37 38.78300 -118.72533 28115 ft 459 kts 136°
2026-05-07 19:37 38.75964 -118.69733 28456 ft 461 kts 136°
2026-05-07 19:37 38.73615 -118.66924 28797 ft 463 kts 136°
2026-05-07 19:38 38.71249 -118.64098 29117 ft 466 kts 136°
2026-05-07 19:38 38.68871 -118.61258 29442 ft 468 kts 136°
2026-05-07 19:38 38.66488 -118.58411 29881 ft 470 kts 136°
2026-05-07 19:38 38.64096 -118.55564 30305 ft 469 kts 136°
2026-05-07 19:39 38.61704 -118.52723 30703 ft 468 kts 136°
2026-05-07 19:39 38.59319 -118.49893 31093 ft 467 kts 136°
2026-05-07 19:39 38.56941 -118.47073 31481 ft 466 kts 136°
2026-05-07 19:39 38.54569 -118.44261 31869 ft 465 kts 136°
2026-05-07 19:40 38.52203 -118.41460 32302 ft 463 kts 136°
2026-05-07 19:40 38.49849 -118.38676 32727 ft 461 kts 136°
2026-05-07 19:40 38.47496 -118.35897 33030 ft 461 kts 136°
2026-05-07 19:40 38.45142 -118.33118 33082 ft 461 kts 136°
2026-05-07 19:41 38.40437 -118.27560 33055 ft 461 kts 136°
2026-05-07 19:41 38.35734 -118.22019 33024 ft 460 kts 136°
2026-05-07 19:42 38.31033 -118.16490 33032 ft 460 kts 136°
2026-05-07 19:42 38.26330 -118.10981 33030 ft 460 kts 136°
2026-05-07 19:43 38.21625 -118.05476 33033 ft 460 kts 136°
2026-05-07 19:43 38.16918 -117.99963 33018 ft 460 kts 136°
2026-05-07 19:44 38.12209 -117.94467 33015 ft 460 kts 136°
2026-05-07 19:44 38.07487 -117.88973 33009 ft 460 kts 136°
2026-05-07 19:45 38.02800 -117.83530 33019 ft 460 kts 136°
2026-05-07 19:45 37.98086 -117.78052 33018 ft 459 kts 136°
2026-05-07 19:46 37.93371 -117.72578 33020 ft 459 kts 136°
2026-05-07 19:46 37.88657 -117.67130 33021 ft 459 kts 136°
2026-05-07 19:47 37.83936 -117.61684 33024 ft 459 kts 136°
2026-05-07 19:47 37.79224 -117.56254 33028 ft 458 kts 136°
2026-05-07 19:48 37.74511 -117.50830 33027 ft 458 kts 136°
2026-05-07 19:48 37.69793 -117.45420 33047 ft 458 kts 136°
2026-05-07 19:49 37.65072 -117.40009 33037 ft 458 kts 136°
2026-05-07 19:49 37.60345 -117.34603 33036 ft 459 kts 136°
2026-05-07 19:50 37.55611 -117.29218 33032 ft 458 kts 136°
2026-05-07 19:50 37.50886 -117.23831 33036 ft 458 kts 136°
2026-05-07 19:51 37.46005 -117.18675 33038 ft 459 kts 144°
2026-05-07 19:51 37.40739 -117.14114 33041 ft 460 kts 144°
2026-05-07 19:52 37.35477 -117.09546 33023 ft 461 kts 143°
2026-05-07 19:52 37.30196 -117.04955 33020 ft 461 kts 143°
2026-05-07 19:53 37.24920 -117.00378 33021 ft 461 kts 144°
2026-05-07 19:53 37.19638 -116.95809 33023 ft 461 kts 143°
2026-05-07 19:54 37.14361 -116.91258 33017 ft 461 kts 144°
2026-05-07 19:54 37.09079 -116.86701 33027 ft 461 kts 143°
2026-05-07 19:55 37.03802 -116.82155 33023 ft 461 kts 143°
2026-05-07 19:55 36.98514 -116.77618 33011 ft 461 kts 143°
2026-05-07 19:56 36.93231 -116.73087 33010 ft 460 kts 143°
2026-05-07 19:56 36.87996 -116.68607 32998 ft 460 kts 143°
2026-05-07 19:57 36.85341 -116.66340 32862 ft 467 kts 143°
2026-05-07 19:57 36.82654 -116.64042 32259 ft 468 kts 143°
2026-05-07 19:57 36.79972 -116.61749 31683 ft 465 kts 143°
2026-05-07 19:57 36.77316 -116.59483 31108 ft 462 kts 143°
2026-05-07 19:58 36.74668 -116.57227 30532 ft 459 kts 143°
2026-05-07 19:58 36.72037 -116.54984 29930 ft 457 kts 143°
2026-05-07 19:58 36.69429 -116.52767 29595 ft 448 kts 143°
2026-05-07 19:58 36.66869 -116.50590 29030 ft 444 kts 142°
2026-05-07 19:59 36.64506 -116.48150 28446 ft 441 kts 133°
2026-05-07 19:59 36.62421 -116.45304 27869 ft 448 kts 128°
2026-05-07 19:59 36.60378 -116.42382 27284 ft 447 kts 129°
2026-05-07 19:59 36.58327 -116.39474 26698 ft 445 kts 129°
2026-05-07 20:00 36.56284 -116.36597 26128 ft 442 kts 129°
2026-05-07 20:00 36.54250 -116.33744 25554 ft 439 kts 129°
2026-05-07 20:00 36.52229 -116.30909 24980 ft 437 kts 129°
2026-05-07 20:00 36.50236 -116.28109 24692 ft 427 kts 129°
2026-05-07 20:01 36.48282 -116.25367 24307 ft 422 kts 129°
2026-05-07 20:01 36.46342 -116.22642 23847 ft 420 kts 129°
2026-05-07 20:01 36.44421 -116.19933 23289 ft 415 kts 129°
2026-05-07 20:01 36.42520 -116.17250 22536 ft 412 kts 129°
2026-05-07 20:02 36.40637 -116.14598 21913 ft 408 kts 129°
2026-05-07 20:02 36.39394 -116.12855 21586 ft 407 kts 129°
2026-05-07 20:02 36.37516 -116.10225 21191 ft 404 kts 129°
2026-05-07 20:02 36.35666 -116.07635 20785 ft 400 kts 129°
2026-05-07 20:03 36.33830 -116.05065 20347 ft 397 kts 129°
2026-05-07 20:03 36.32001 -116.02507 19915 ft 394 kts 129°
2026-05-07 20:03 36.30216 -116.00011 19798 ft 380 kts 129°
2026-05-07 20:03 36.28488 -115.97605 19681 ft 368 kts 129°
2026-05-07 20:04 36.26807 -115.95269 19532 ft 358 kts 129°
2026-05-07 20:04 36.25171 -115.92983 19226 ft 353 kts 128°
2026-05-07 20:04 36.23600 -115.90662 18863 ft 350 kts 126°
2026-05-07 20:04 36.22100 -115.88300 18527 ft 348 kts 125°
2026-05-07 20:05 36.20634 -115.85927 18119 ft 346 kts 124°
2026-05-07 20:05 36.19177 -115.83562 17716 ft 344 kts 124°
2026-05-07 20:05 36.17728 -115.81223 17401 ft 340 kts 125°
2026-05-07 20:05 36.16291 -115.78920 17014 ft 337 kts 125°
2026-05-07 20:06 36.14855 -115.76634 16614 ft 336 kts 125°
2026-05-07 20:06 36.13643 -115.74192 16284 ft 330 kts 112°
2026-05-07 20:06 36.12793 -115.71569 15872 ft 328 kts 108°
2026-05-07 20:06 36.11984 -115.68938 15527 ft 326 kts 108°
2026-05-07 20:07 36.11183 -115.66331 15207 ft 323 kts 108°
2026-05-07 20:07 36.10387 -115.63750 14898 ft 320 kts 108°
2026-05-07 20:07 36.09597 -115.61189 14573 ft 317 kts 109°
2026-05-07 20:07 36.08813 -115.58646 14254 ft 316 kts 109°
2026-05-07 20:08 36.08035 -115.56117 13931 ft 314 kts 109°
2026-05-07 20:08 36.07259 -115.53601 13593 ft 312 kts 109°
2026-05-07 20:08 36.06486 -115.51099 13276 ft 311 kts 109°
2026-05-07 20:08 36.05713 -115.48610 12968 ft 310 kts 109°
2026-05-07 20:09 36.04940 -115.46129 12657 ft 309 kts 109°
2026-05-07 20:09 36.04173 -115.43657 12337 ft 308 kts 109°
2026-05-07 20:09 36.03412 -115.41191 12026 ft 308 kts 109°
2026-05-07 20:10 36.01904 -115.36260 11405 ft 306 kts 105°
2026-05-07 20:10 36.01525 -115.33695 11098 ft 303 kts 92°
2026-05-07 20:10 36.01413 -115.31100 10783 ft 302 kts 91°
2026-05-07 20:10 36.01292 -115.28518 10503 ft 301 kts 91°
2026-05-07 20:11 36.01164 -115.25943 10202 ft 300 kts 91°
2026-05-07 20:11 36.01034 -115.23375 9904 ft 299 kts 91°
2026-05-07 20:11 36.00903 -115.20808 9576 ft 299 kts 91°
2026-05-07 20:11 36.00774 -115.18276 9410 ft 291 kts 91°
2026-05-07 20:12 36.00650 -115.15823 9301 ft 281 kts 91°
2026-05-07 20:12 36.00530 -115.13449 9175 ft 273 kts 91°
2026-05-07 20:12 36.00415 -115.11148 9057 ft 264 kts 91°
2026-05-07 20:12 36.00300 -115.08887 8639 ft 269 kts 91°
2026-05-07 20:13 36.00185 -115.06552 8243 ft 273 kts 92°
2026-05-07 20:13 36.00069 -115.04225 8063 ft 268 kts 92°
2026-05-07 20:13 35.99952 -115.01965 7935 ft 260 kts 92°
2026-05-07 20:13 35.99857 -114.99766 7793 ft 253 kts 91°
2026-05-07 20:14 35.99779 -114.97620 7581 ft 247 kts 91°
2026-05-07 20:14 35.99702 -114.95521 7423 ft 243 kts 91°
2026-05-07 20:14 35.99628 -114.93451 7279 ft 242 kts 91°
2026-05-07 20:14 35.99556 -114.91377 7160 ft 241 kts 91°
2026-05-07 20:15 35.99487 -114.89307 7041 ft 241 kts 91°
2026-05-07 20:15 35.99421 -114.87244 6924 ft 241 kts 91°
2026-05-07 20:15 35.99359 -114.85177 6803 ft 240 kts 91°
2026-05-07 20:15 35.99297 -114.83118 6688 ft 240 kts 90°
2026-05-07 20:16 35.99231 -114.81057 6572 ft 240 kts 91°
2026-05-07 20:16 35.99396 -114.79037 6455 ft 236 kts 66°
2026-05-07 20:16 36.00339 -114.77438 6332 ft 232 kts 34°
2026-05-07 20:16 36.01814 -114.76731 6210 ft 229 kts
2026-05-07 20:17 36.03406 -114.76841 6091 ft 230 kts 352°
2026-05-07 20:17 36.04985 -114.77119 5981 ft 229 kts 351°
2026-05-07 20:17 36.06534 -114.77553 5929 ft 229 kts 333°
2026-05-07 20:17 36.07803 -114.78732 5933 ft 230 kts 311°
2026-05-07 20:18 36.08630 -114.80414 5932 ft 230 kts 296°
2026-05-07 20:18 36.09318 -114.82208 5929 ft 231 kts 296°
2026-05-07 20:18 36.09997 -114.84000 5928 ft 231 kts 296°
2026-05-07 20:18 36.10678 -114.85804 5928 ft 231 kts 296°
2026-05-07 20:19 36.11340 -114.87562 5918 ft 223 kts 296°
2026-05-07 20:19 36.11985 -114.89272 5899 ft 212 kts 296°
2026-05-07 20:19 36.12604 -114.90908 5905 ft 210 kts 296°
2026-05-07 20:19 36.13218 -114.92553 5943 ft 211 kts 293°
2026-05-07 20:20 36.13576 -114.94280 5829 ft 212 kts 278°
2026-05-07 20:20 36.13689 -114.96092 5516 ft 210 kts 275°
2026-05-07 20:20 36.13798 -114.97889 5258 ft 209 kts 275°
2026-05-07 20:20 36.13896 -114.99660 5006 ft 204 kts 274°
2026-05-07 20:21 36.13978 -115.01395 4763 ft 200 kts 274°
2026-05-07 20:21 36.14057 -115.03114 4511 ft 200 kts 273°
2026-05-07 20:21 36.14139 -115.04827 4259 ft 198 kts 273°
2026-05-07 20:21 36.14219 -115.06525 4078 ft 192 kts 272°
2026-05-07 20:22 36.14232 -115.08106 3851 ft 182 kts 269°
2026-05-07 20:22 36.14207 -115.09657 3646 ft 174 kts 268°
2026-05-07 20:22 36.14140 -115.11092 3436 ft 163 kts 259°
2026-05-07 20:22 36.13895 -115.12449 3190 ft 157 kts 249°
2026-05-07 20:23 36.13318 -115.13553 2981 ft 153 kts 221°
2026-05-07 20:23 36.12432 -115.14223 2757 ft 150 kts 203°
2026-05-07 20:23 36.11489 -115.14763 2548 ft 150 kts 204°
2026-05-07 20:23 36.10546 -115.15304 2321 ft 148 kts 204°
2026-05-07 20:24 36.09605 -115.15851 2127 ft 146 kts 204°
2026-05-07 20:24 36.08794 -115.16317 2129 ft 107 kts 205°
2026-05-07 20:24 36.08267 -115.16619 2143 ft 61 kts 204°
2026-05-07 20:24 36.08025 -115.16726 2153 ft 23 kts 187°
2026-05-07 20:25 36.07907 -115.16708 2156 ft 12 kts 159°
2026-05-07 20:25 36.07845 -115.16652 2155 ft 11 kts 130°
2026-05-07 20:25 36.07804 -115.16555 2153 ft 14 kts 103°
2026-05-07 20:25 36.07803 -115.16415 2145 ft 19 kts 88°
2026-05-07 20:26 36.07850 -115.16281 2134 ft 20 kts 28°
2026-05-07 20:26 36.07976 -115.16211 2129 ft 21 kts 26°
2026-05-07 20:26 36.08113 -115.16131 2125 ft 24 kts 25°
2026-05-07 20:26 36.08274 -115.16047 2120 ft 26 kts 25°
2026-05-07 20:27 36.08439 -115.15945 2113 ft 27 kts 26°
2026-05-07 20:27 36.08593 -115.15858 2110 ft 18 kts 24°
2026-05-07 20:27 36.08678 -115.15807 2107 ft 14 kts 24°
2026-05-07 20:27 36.08760 -115.15729 2104 ft 17 kts 74°
2026-05-07 20:28 36.08762 -115.15574 2099 ft 17 kts 87°
2026-05-07 20:28 36.08712 -115.15509 2098 ft 10 kts 188°
2026-05-07 20:28 36.08698 -115.15511 2098 ft 1 kts 187°
2026-05-07 20:28 36.08683 -115.15514 2098 ft 5 kts 187°
2026-05-07 20:29 36.08635 -115.15514 2098 ft 8 kts 165°
2026-05-07 20:29 36.08590 -115.15480 2098 ft 6 kts 146°
2026-05-07 20:29 36.08574 -115.15467 2098 ft 0 kts 146°